Weather History for Detroit Metro, MI

Change the Weather History Date:

Thursday, January 1, 2009

  Actual Average Record
Temperature  
Mean Temperature 20 °F 26 °F  
Max Temperature 29 °F 33 °F 65 °F (1876)
Min Temperature 10 °F 20 °F -7 °F (1968)
Degree Days  
Heating Degree Days 45 39  
Month to date heating degree days 45 39  
Since 1 July heating degree days 2448 2336  
Cooling Degree Days 0 0  
Month to date cooling degree days 0 0  
Year to date cooling degree days 0 0  
Moisture  
Dew Point 12 °F    
Average Humidity 70    
Maximum Humidity 83    
Minimum Humidity 57    
Precipitation  
Precipitation 0.00 in 0.07 in 1.41 in (1932)
Month to date precipitation 0.00 0.07  
Year to date precipitation 0.00 0.07  
Snow  
Snow 0.00 in 0.40 in 7.00 in (1978)
Month to date snowfall 0.0 0.4  
Since 1 July snowfall 23.6 11.6  
Snow Depth 1.00 in    
Sea Level Pressure  
Sea Level Pressure 30.17 in    
Wind  
Wind Speed 8 mph (South)    
Max Wind Speed 18 mph    
Max Gust Speed 22 mph    
Visibility 10 miles    
Events      
T = Trace of Precipitation, MM = Missing Value Source: NWS Daily Summary

Daily Weather History Graph

Daily Weather History Graph

Search for Another Location

Airport:

Trip Planner

Search our weather history database for the weather conditions in past years. The results will help you decide how hot, cold, wet, or windy it might be!

Date:

Astronomy

Jan. 01, 2009 Rise Set
Actual Time 8:02 AM EST 5:12 PM EST
Civil Twilight 7:30 AM EST 5:43 PM EST
Nautical Twilight 6:55 AM EST 6:19 PM EST
Astronomical Twilight 6:21 AM EST 6:53 PM EST
Moon 10:45 AM EST (1/1) 10:28 PM EST (1/1)
Length of Visible Light 10h 13m
Length of Day
9h 09m
Waxing Crescent, 23% of the Moon is Illuminated
Jan 1
Waxing Crescent
Jan 4
First Quarter
Jan 10
Full
Jan 17
Last Quarter
Jan 26
New

Hourly Weather History & Observations

Time (EST) Temp. Windchill Dew Point Humidity Pressure Visibility Wind Dir Wind Speed Gust Speed Precip Events Conditions
12:53 AM 14.0 °F 6.5 °F 6.1 °F 71% 30.38 in 10.0 mi WSW 4.6 mph - N/A   Partly Cloudy
1:53 AM 12.9 °F - 6.1 °F 74% 30.39 in 10.0 mi Calm Calm - N/A   Scattered Clouds
2:53 AM 10.9 °F 4.7 °F 5.0 °F 77% 30.40 in 10.0 mi SW 3.5 mph - N/A   Mostly Cloudy
3:53 AM 12.0 °F - 6.1 °F 77% 30.38 in 9.0 mi Calm Calm - N/A   Mostly Cloudy
4:53 AM 10.9 °F - 6.1 °F 81% 30.37 in 9.0 mi Calm Calm - N/A   Overcast
5:53 AM 10.9 °F - 6.1 °F 81% 30.36 in 9.0 mi Calm Calm - N/A   Overcast
6:53 AM 12.9 °F - 7.0 °F 77% 30.34 in 10.0 mi Calm Calm - N/A   Overcast
7:53 AM 15.1 °F 7.7 °F 8.1 °F 74% 30.34 in 10.0 mi South 4.6 mph - N/A   Overcast
8:53 AM 17.1 °F 7.6 °F 10.0 °F 74% 30.34 in 10.0 mi South 6.9 mph - N/A   Overcast
9:53 AM 19.0 °F 7.5 °F 10.9 °F 71% 30.32 in 10.0 mi SSE 10.4 mph - N/A   Mostly Cloudy
10:53 AM 21.9 °F 8.7 °F 12.0 °F 66% 30.32 in 10.0 mi South 15.0 mph - N/A   Overcast
11:53 AM 23.0 °F 9.6 °F 12.9 °F 65% 30.27 in 10.0 mi South 16.1 mph - N/A   Overcast
12:53 PM 23.0 °F 11.7 °F 14.0 °F 68% 30.22 in 10.0 mi South 11.5 mph - N/A   Overcast
1:53 PM 24.1 °F 12.5 °F 14.0 °F 65% 30.18 in 10.0 mi South 12.7 mph - N/A   Overcast
2:53 PM 25.0 °F 14.2 °F 14.0 °F 63% 30.15 in 10.0 mi SSE 11.5 mph - N/A   Overcast
3:53 PM 25.0 °F 14.2 °F 14.0 °F 63% 30.11 in 10.0 mi SSE 11.5 mph - N/A   Overcast
4:53 PM 26.1 °F 16.2 °F 14.0 °F 60% 30.06 in 10.0 mi South 10.4 mph - N/A   Overcast
5:53 PM 26.1 °F 16.8 °F 15.1 °F 63% 30.01 in 10.0 mi SSE 9.2 mph 17.3 mph N/A   Overcast
6:53 PM 27.0 °F 18.0 °F 15.1 °F 61% 29.96 in 10.0 mi SSE 9.2 mph - N/A   Overcast
7:53 PM 27.0 °F 16.1 °F 15.1 °F 61% 29.91 in 10.0 mi SE 12.7 mph - N/A   Mostly Cloudy
8:53 PM 28.0 °F 19.3 °F 16.0 °F 61% 29.88 in 10.0 mi South 9.2 mph - N/A   Overcast
9:53 PM 28.0 °F 17.0 °F 17.1 °F 63% 29.85 in 10.0 mi South 13.8 mph - N/A   Overcast
10:53 PM 28.0 °F 18.6 °F 16.0 °F 61% 29.82 in 10.0 mi South 10.4 mph - N/A   Mostly Cloudy
11:53 PM 28.9 °F 19.2 °F 16.0 °F 58% 29.79 in 10.0 mi SSW 11.5 mph - N/A   Mostly Cloudy